Theta_e
336 339 346 344 346 344 346 343 342 343 344 344 344 345 345 343 347 349 343 340 338 339 339 337 337 338 337 336 338 338 337 333 328 325 323 321 321 320 320 321 325 332 334 338 334 337 335 335 332
344 341 341 342 348 351 346 341 343 344 343 345 344 344 343 343 341 342 342 340 339 339 337 336 336 337 337 336 334 333 332 330 328 327 326 324 322 321 320 321 321 325 333 336 335 332 336 336 333
343 340 341 345 348 348 346 343 344 344 343 342 343 343 342 341 343 342 341 340 339 338 338 337 336 334 332 330 328 327 326 326 326 326 325 325 325 325 323 321 321 321 322 324 328 334 334 334 334
341 341 341 346 346 344 345 345 342 341 342 341 342 343 342 343 343 341 339 339 339 337 335 329 328 327 326 324 323 322 321 320 320 320 320 321 323 323 324 325 325 322 321 321 322 323 329 334 334
339 340 344 345 344 345 344 343 343 341 340 340 342 344 343 342 341 341 339 338 337 335 333 327 323 322 320 319 318 318 317 316 316 316 316 315 314 314 316 318 321 323 326 325 322 321 322 325 331
339 341 346 349 345 343 344 343 342 341 340 340 340 343 343 342 341 339 337 336 334 333 330 325 319 320 320 318 316 314 314 315 314 313 312 312 311 311 311 312 313 314 317 321 325 327 323 322 323
339 344 344 343 341 342 344 342 342 340 340 341 340 342 342 341 338 335 332 330 329 329 327 327 327 325 324 322 314 312 312 313 312 312 312 311 311 312 312 311 310 310 311 312 315 322 327 327 322
338 339 340 338 340 342 343 342 342 341 343 342 343 343 344 340 336 333 330 329 328 328 328 328 325 322 321 321 319 315 315 312 312 312 312 311 319 320 320 317 317 311 310 310 310 311 315 324 329
339 339 339 338 340 340 341 342 343 342 342 342 343 344 342 339 333 330 329 327 326 325 325 322 320 320 320 319 320 321 320 320 320 319 318 320 320 319 317 317 312 309 309 309 309 309 310 312 318
339 339 338 338 339 342 341 342 343 342 342 343 343 342 340 335 331 328 326 326 327 327 324 322 321 320 318 318 319 320 321 321 320 320 319 319 319 319 316 317 316 315 313 311 313 312 311 310 313
339 339 340 341 340 341 342 343 343 342 344 343 343 341 339 332 328 325 327 325 322 324 321 320 320 320 318 317 317 318 320 320 320 320 319 319 319 318 318 317 317 318 318 318 317 317 316 317 319
341 340 341 342 342 342 343 343 342 342 342 341 343 341 335 329 326 326 325 322 323 324 321 320 320 319 319 317 317 318 318 319 318 318 319 318 318 318 318 317 317 318 318 318 318 318 318 318 317
342 342 343 343 343 343 342 342 341 340 341 341 341 340 333 327 327 325 321 320 317 320 320 321 320 319 320 320 318 318 318 318 318 318 318 317 317 317 317 317 318 317 317 317 318 318 318 318 318
339 341 342 342 342 342 342 341 340 339 340 340 339 336 330 328 327 325 321 320 320 320 324 322 322 321 321 320 319 318 318 318 319 318 318 316 316 317 317 318 317 317 317 317 318 318 318 318 318
340 344 344 343 343 342 341 343 341 338 339 337 336 333 331 329 325 325 325 324 323 327 325 323 321 322 320 320 320 319 318 318 318 318 318 317 317 317 317 318 317 317 317 318 318 318 318 318 318
342 344 347 345 343 343 342 346 339 337 337 336 335 333 329 326 326 326 324 323 324 329 327 324 321 323 321 321 321 320 319 319 318 318 318 317 317 317 317 317 317 318 317 317 317 318 318 318 318
341 339 338 345 341 343 343 345 339 337 337 336 335 334 331 331 329 329 328 326 329 330 328 326 323 324 323 322 321 320 319 319 319 318 318 318 317 317 317 316 316 317 317 316 317 318 318 318 318
334 333 335 335 344 342 341 343 339 337 336 336 335 335 332 331 331 330 330 328 330 329 329 326 324 324 324 321 321 318 317 318 318 318 318 317 317 317 316 316 316 316 316 316 317 318 319 318 318
334 335 335 339 339 338 339 341 339 338 337 337 336 334 332 331 332 332 331 329 331 330 327 326 320 323 326 323 321 319 316 317 318 318 318 318 318 317 316 316 316 316 316 316 315 318 319 318 317
335 335 340 338 339 338 340 341 338 337 336 334 333 335 333 330 330 329 329 330 331 328 326 325 321 326 326 324 322 320 319 317 318 317 316 316 318 316 316 316 315 315 316 315 316 317 318 318 317
334 336 337 335 339 337 338 341 339 336 333 333 332 331 332 330 329 330 330 331 330 330 328 321 324 326 325 325 321 319 318 319 318 318 318 317 318 318 317 316 315 316 316 316 318 318 317 318 319
335 337 335 334 335 336 340 337 341 337 335 331 329 330 330 330 329 328 328 329 332 331 330 327 328 327 325 325 321 320 318 318 316 317 318 318 318 317 317 316 316 317 316 316 317 317 317 316 318
334 336 335 334 333 334 339 341 341 335 334 331 329 329 328 329 329 328 329 328 327 328 330 330 329 327 324 325 322 319 318 317 317 318 318 318 317 317 316 316 316 316 317 316 317 317 318 315 315
335 335 335 335 335 338 339 341 341 336 332 329 327 327 327 326 327 327 327 328 326 325 327 327 326 328 326 325 323 321 320 319 318 318 318 317 316 315 314 315 317 316 315 316 317 317 316 317 316
336 337 335 333 340 340 339 336 338 332 330 328 327 326 324 324 325 324 325 326 324 325 324 322 324 323 325 324 322 320 320 318 317 317 317 317 315 315 315 316 316 317 317 316 317 315 316 316 316
335 333 332 332 333 330 336 338 335 331 328 327 326 324 323 323 323 323 324 323 322 323 323 324 325 323 323 324 321 320 320 319 318 316 317 316 315 314 315 314 315 316 317 317 317 317 317 316 317
330 331 333 332 327 330 338 335 330 328 326 325 325 324 324 323 323 323 323 323 323 322 321 321 321 322 323 323 322 320 319 318 318 317 316 316 315 315 315 315 316 315 316 315 316 315 317 315 317
331 329 327 329 336 334 336 337 335 329 327 326 324 324 323 323 322 321 320 320 319 319 319 319 320 321 321 322 321 320 317 317 318 318 316 317 316 316 317 316 315 314 316 314 316 316 315 317 317
327 329 332 332 330 330 328 338 330 329 328 326 324 323 323 323 321 319 316 315 314 314 314 315 315 316 317 318 319 319 316 315 317 317 314 317 316 317 317 316 315 315 314 313 315 316 316 316 318
327 329 330 332 334 331 329 333 328 327 325 325 324 322 321 320 315 313 312 313 313 313 313 313 313 313 314 316 316 318 318 316 314 314 317 314 316 317 316 316 316 315 313 314 315 316 316 316 316
Wind_Speed
3 3 2 9 4 4 1 12 10 9 11 15 13 15 16 15 9 5 9 11 13 13 12 12 11 9 6 6 7 6 6 7 6 6 5 5 5 5 4 3 2 2 3 3 3 2 3 3 2
2 6 9 13 3 4 11 13 15 15 14 10 9 11 17 8 12 15 12 13 12 14 15 13 11 8 6 5 4 5 7 8 8 7 6 5 5 4 3 2 2 1 1 1 1 3 3 3 4
3 7 9 5 3 6 14 12 14 12 7 0 6 12 8 6 11 8 15 16 16 17 14 12 8 6 6 5 6 7 8 8 8 8 8 8 7 6 6 5 3 3 3 4 5 5 5 5 5
9 6 9 5 14 17 16 11 12 13 8 4 13 12 10 11 6 13 18 18 17 15 13 10 9 9 9 8 8 8 9 9 9 9 8 8 8 8 7 7 7 7 7 8 8 7 7 8 8
8 14 5 6 16 15 12 9 5 7 5 7 13 8 11 14 18 17 15 16 15 15 13 11 10 9 9 8 9 9 9 9 9 9 9 10 10 10 11 11 11 10 9 10 10 11 10 11 11
18 13 4 9 13 9 10 9 7 9 9 8 16 15 9 13 15 14 13 13 13 13 12 11 11 11 10 9 8 8 8 8 9 9 10 11 12 12 12 13 13 13 13 12 12 12 13 13 13
8 9 3 13 10 10 8 5 12 6 7 10 7 11 10 13 14 14 13 13 12 11 10 10 9 14 14 15 10 9 9 9 9 9 10 10 11 13 13 15 15 15 16 16 16 15 15 15 16
5 8 7 11 9 9 7 6 6 3 6 4 4 5 11 16 14 13 13 12 12 11 9 8 8 6 4 10 14 11 9 10 10 10 10 9 9 14 13 13 15 15 17 19 19 19 18 18 17
10 9 7 9 7 12 10 10 3 3 10 8 6 8 22 18 14 13 13 11 11 10 10 9 9 9 9 7 10 12 13 10 11 11 12 8 4 6 8 15 15 15 15 16 17 19 20 20 20
13 2 15 13 5 14 9 6 6 7 11 9 14 14 19 18 16 13 13 12 11 10 9 9 12 14 10 10 9 7 6 5 3 4 6 5 8 8 12 13 18 15 14 11 14 15 16 14 14
14 13 11 11 7 7 10 8 3 4 12 5 14 18 19 18 15 14 13 13 13 9 8 9 12 13 14 11 9 6 5 4 6 6 6 8 8 9 8 8 8 10 11 10 10 9 9 9 11
10 9 12 9 7 5 4 9 9 9 5 5 13 17 19 17 14 16 15 16 12 10 7 7 9 12 14 14 10 7 4 3 3 6 8 7 8 8 8 8 8 9 9 11 10 9 11 10 11
10 9 10 9 8 7 6 7 9 8 8 9 17 17 20 20 18 16 17 16 11 11 10 1 7 12 14 15 11 8 5 5 3 6 7 7 7 9 7 8 8 9 9 9 10 10 11 11 11
7 10 12 10 8 8 7 9 7 6 9 12 12 13 14 18 13 17 19 15 11 7 5 1 4 10 11 12 14 10 8 7 6 6 7 6 6 7 6 6 8 8 9 10 9 11 12 11 11
13 10 10 11 8 6 6 7 5 9 10 10 10 9 10 14 16 15 17 15 12 5 7 3 3 7 13 12 13 11 8 7 7 7 8 7 7 7 8 7 8 9 10 11 11 12 12 13 14
15 12 7 11 7 5 6 5 9 9 10 11 9 9 11 15 14 15 17 15 15 10 9 5 3 6 10 13 11 12 9 7 7 7 7 9 8 8 9 8 9 11 10 10 11 12 13 14 14
15 5 2 9 3 2 10 7 9 9 10 13 12 10 9 12 14 17 15 16 13 13 11 7 6 5 8 9 11 13 13 9 9 8 8 8 10 9 10 8 10 12 9 11 12 12 13 13 14
9 12 6 8 8 7 4 5 7 7 8 7 6 8 11 10 14 17 16 17 12 12 10 12 12 8 9 11 11 14 12 9 9 8 9 10 10 10 11 10 11 13 10 11 12 14 11 12 14
11 11 8 11 6 11 4 8 8 7 7 7 6 6 7 4 11 16 17 16 14 13 14 16 10 11 10 8 10 14 13 10 9 10 10 12 9 10 11 9 11 12 11 13 17 13 13 12 13
12 12 12 5 4 5 7 10 6 6 6 3 5 7 9 8 6 10 15 15 17 20 16 17 14 12 11 9 9 12 11 10 10 11 13 13 10 11 10 12 12 13 12 14 14 13 12 11 13
15 3 13 16 5 12 8 12 8 7 5 3 0 4 8 13 9 11 9 11 16 18 18 15 14 14 13 10 8 11 15 14 9 9 12 16 12 11 11 12 14 12 12 13 13 12 12 14 11
16 4 10 13 8 7 11 10 9 12 8 4 2 1 6 6 7 6 7 6 13 13 20 16 15 14 13 10 7 8 10 11 15 15 15 16 15 11 12 12 12 14 12 15 13 12 13 11 12
17 11 13 15 17 10 14 8 9 3 10 5 3 2 6 5 10 8 8 9 9 11 15 13 16 16 12 10 9 7 10 12 12 14 15 14 13 10 12 10 12 14 10 15 11 13 14 11 14
6 12 15 13 8 14 6 9 10 5 4 8 12 8 8 9 7 9 10 13 10 15 19 15 12 8 8 9 9 10 10 11 12 13 11 9 10 13 14 13 10 12 15 11 11 12 12 11 12
8 13 13 9 5 8 10 8 8 7 10 9 4 9 9 10 7 11 10 12 16 12 11 11 9 14 13 9 9 11 11 12 13 11 10 10 8 9 8 10 10 10 13 9 10 11 11 12 11
15 10 9 16 13 10 13 1 7 13 13 8 4 4 8 11 13 13 13 13 16 17 17 14 13 15 9 8 16 13 13 10 11 13 8 11 7 9 9 8 9 11 11 6 10 10 10 13 14
10 9 9 10 18 13 6 6 9 9 9 2 2 5 7 9 13 14 15 12 14 16 18 18 15 15 14 16 20 18 12 13 13 13 12 11 9 7 6 10 9 11 10 7 10 11 11 12 12
7 10 9 8 9 11 7 6 7 6 6 3 2 4 12 16 13 11 12 12 14 17 18 17 18 17 22 15 17 16 16 16 15 11 13 12 11 11 9 8 7 9 9 9 10 11 12 10 11
8 6 2 4 8 9 12 8 5 6 4 4 10 11 9 11 12 14 15 15 16 16 17 18 19 20 22 22 20 20 22 20 18 17 14 13 13 12 13 10 10 7 9 10 10 10 9 6 7
3 7 7 7 2 9 6 4 6 5 8 11 13 8 7 11 14 14 14 14 14 16 17 18 19 19 19 20 27 18 17 21 23 20 13 15 16 14 14 10 11 9 10 6 7 9 6 5 7
Wind_Direction
165 177 243 259 319 71 54 86 108 100 87 68 59 62 73 36 17 73 113 114 112 113 120 121 103 102 100 108 95 89 74 64 58 55 49 39 34 39 55 66 91 107 128 92 147 165 196 201 185
137 231 251 274 187 32 63 78 56 60 87 93 70 82 46 58 91 107 102 118 119 116 113 113 123 127 123 112 82 51 40 34 35 35 34 31 26 22 25 24 20 304 274 287 265 230 219 215 209
179 235 263 115 273 138 91 72 64 65 95 260 99 61 57 82 60 97 119 117 113 106 111 117 117 107 90 72 58 42 34 28 23 21 17 15 9 360 352 346 337 322 298 274 267 262 250 240 233
256 229 32 351 90 85 89 59 120 139 98 19 77 79 94 40 83 118 105 103 102 100 98 107 100 90 77 62 50 37 28 22 15 11 4 1 358 350 339 324 311 306 301 299 293 279 265 260 256
233 65 178 112 84 73 73 79 1 55 49 79 93 101 90 86 104 107 107 115 110 104 97 97 86 73 59 44 29 15 5 357 349 342 340 335 335 332 325 321 317 310 297 288 280 280 274 264 258
276 148 347 41 98 113 86 121 126 38 64 102 93 97 81 114 110 114 116 114 107 108 101 88 71 47 26 21 12 356 343 331 322 318 315 315 316 315 310 305 301 298 295 289 288 285 279 271 266
139 118 189 129 113 118 88 12 49 77 106 49 83 94 122 123 118 120 119 114 108 101 88 75 46 26 8 349 349 341 329 318 311 306 305 307 315 319 308 304 298 293 287 282 276 272 270 270 267
332 97 143 104 119 107 104 95 113 71 79 105 20 140 141 136 134 129 120 113 103 97 84 66 42 39 24 336 328 337 340 330 323 318 312 328 2 346 341 331 303 299 291 285 279 273 266 261 261
34 358 90 102 97 112 140 137 114 129 108 63 51 78 141 139 138 134 127 111 113 97 81 63 42 28 12 357 337 357 350 3 13 355 341 17 329 306 315 300 315 316 306 301 294 288 276 268 262
78 314 62 48 53 123 153 104 141 179 133 112 102 115 137 141 143 134 124 104 105 88 72 42 38 33 19 5 8 349 342 331 15 351 352 345 324 318 345 338 338 343 338 347 326 322 315 306 291
91 79 98 66 67 107 110 113 109 294 90 104 150 144 145 145 141 135 130 134 118 90 78 53 33 20 35 19 17 353 347 344 330 358 353 329 338 315 331 336 324 325 332 332 330 326 316 283 265
103 55 91 100 97 121 86 105 69 50 61 104 146 154 148 144 138 143 147 134 120 85 77 39 28 32 29 30 12 12 351 1 332 319 341 337 332 322 331 326 330 326 324 329 325 320 307 313 291
109 97 103 122 117 99 122 60 100 86 91 115 129 136 152 164 156 146 149 139 134 138 95 35 31 31 30 27 19 10 9 319 333 334 321 336 342 322 337 331 338 335 328 326 324 322 310 308 303
106 144 139 137 129 138 148 140 226 110 125 129 138 147 154 171 169 164 162 170 175 147 170 247 12 18 19 16 17 10 336 339 336 328 300 344 329 316 333 335 325 325 321 315 322 317 319 312 302
158 153 151 152 154 147 154 143 92 139 143 144 153 150 153 167 177 187 185 195 199 180 209 235 1 358 8 4 2 353 337 335 331 322 316 324 328 318 328 323 328 319 316 324 319 317 319 312 303
214 107 243 140 167 129 249 104 131 157 155 164 170 175 188 191 203 204 207 220 200 220 215 230 289 340 345 342 352 352 338 332 328 315 312 302 313 310 318 315 314 307 324 314 317 315 313 306 298
304 186 48 131 146 116 231 106 138 177 184 173 177 190 201 205 216 211 226 211 231 236 216 233 274 308 317 330 346 347 332 334 323 317 311 295 312 308 314 312 302 306 318 314 313 309 306 306 299
347 346 139 75 121 222 195 90 151 178 198 228 194 199 198 213 221 220 222 224 236 238 217 238 271 267 292 335 325 335 332 319 318 316 302 311 301 306 303 303 300 307 300 301 296 298 305 313 303
314 315 306 85 156 275 25 142 171 198 234 249 252 244 244 239 236 223 223 226 239 234 248 276 265 259 268 300 321 330 325 311 306 310 311 305 300 303 297 303 298 298 291 292 299 313 301 313 310
291 293 102 231 136 250 156 160 193 182 218 249 319 201 222 226 212 202 228 237 235 246 261 254 260 245 254 278 291 318 333 318 292 290 295 308 298 294 293 291 288 295 293 295 301 300 310 313 313
312 244 333 331 130 249 275 192 159 163 218 227 344 300 200 238 224 195 212 231 250 248 243 251 249 240 242 250 296 312 315 284 289 297 302 295 289 288 287 288 291 289 292 290 289 306 308 309 307
307 338 316 297 275 311 196 292 146 165 165 115 103 161 243 234 261 260 265 225 252 243 236 231 241 237 241 244 268 290 321 296 296 291 286 285 281 260 283 276 285 285 281 281 287 297 300 305 308
297 331 310 299 290 265 222 285 128 131 96 109 134 287 29 2 346 293 284 317 296 284 231 235 246 224 231 230 246 287 312 296 296 288 294 300 303 278 291 279 279 286 285 283 292 299 290 300 309
331 276 271 262 277 250 74 202 125 129 107 89 52 31 13 5 346 326 297 331 313 292 305 309 303 195 218 226 250 269 292 295 288 296 296 296 297 309 301 280 283 282 283 289 293 289 293 302 302
259 273 293 289 186 290 196 256 81 106 79 75 61 27 30 354 7 345 359 338 337 333 340 341 303 291 248 222 249 265 272 282 293 311 301 299 321 309 284 290 285 281 288 294 300 309 307 308 300
301 315 303 297 306 337 165 100 107 83 85 75 51 350 16 2 11 355 1 349 334 330 325 326 325 325 308 261 252 256 263 272 285 285 275 284 283 296 304 297 287 283 294 304 308 322 313 299 298
327 275 356 304 268 251 72 62 146 135 111 130 45 14 4 348 13 6 357 355 335 329 326 322 316 308 291 273 255 237 254 265 260 268 270 267 271 294 312 285 295 282 285 297 312 306 307 311 302
285 333 292 246 285 308 192 165 60 152 128 112 209 343 16 18 3 355 347 336 330 327 319 326 329 313 305 288 275 278 271 276 277 258 278 274 265 277 276 301 300 298 275 290 303 305 303 311 311
301 281 302 299 285 306 296 99 60 87 87 7 41 25 5 340 333 324 333 333 333 331 329 330 325 320 316 315 288 261 266 270 257 263 263 274 282 280 274 286 294 290 291 299 288 303 311 320 329
310 335 297 294 53 307 301 82 80 69 65 30 356 50 337 327 336 338 341 336 337 335 335 335 334 330 324 315 302 302 275 263 265 259 253 270 271 269 279 279 277 270 286 284 279 308 348 4 355